Weather in Anyang

China     36°05′51″N   114°21′01″E
temp.,
°C
wind,
m/s
gust,
m/s
humid.,
%
clouds,
%
prec.,
mm/h
press.,
hPa
HPBL,
m
28 september, tue
tue2823:00+19nnw2293100 0.6 101547
02:00+18nne3497100 3.3 1014149
05:00+18n51092100 4.5 1014634
08:00+16nnw5990100 7.8 1016411
11:00+16nw2290100 3.2 1015221
14:00+16sw1289100 4.4 1013146
17:00+17s1287100 0.0 1011134
20:00+15s23950 0.0 101262
29 september, wed
wed2923:00+15ssw11890 0.0 101111
02:00+16ssw22810 0.0 101013
05:00+15ssw22730 0.0 100914
08:00+19ssw11680 0.0 101053
11:00+24sse22580 0.0 1010339
14:00+26se33580 0.0 1009572
17:00+25se23727 0.0 100977
20:00+21sse11815 0.0 101011
30 september, thu
thu3023:00+20s228561 0.0 101116
02:00+19s2286100 0.0 101026
05:00+19s3787100 0.0 1009138
08:00+20s358211 0.0 1009170
11:00+26ssw69603 0.0 1008617
14:00+27s685859 0.0 1006708
17:00+25s476989 0.0 1005181
20:00+22s347844 0.0 100754
1 october, fri
fri123:00+21sw11765 0.0 100714
02:00+20n37890 0.0 1008147
05:00+19n499694 0.0 1010382
08:00+19n4890100 0.0 1011437
11:00+22nne3480100 0.0 1012702
14:00+23ene2276100 0.0 1009740
17:00+23ese2282100 0.0 1009170
20:00+20s22910 0.0 100923
2 october, sat
sat223:00+20sw1192100 0.0 101011
02:00+19s22940 0.0 100849
05:00+19ssw11920 0.0 100815
08:00+21sw11822 0.0 1009106
11:00+26s456917 0.0 1008704
14:00+28s456388 0.0 10071027
17:00+26s59721 0.0 1006362
20:00+23s1282100 0.0 100713